User: anonymous   Login
Location: Unspecified
(0.0000°N, 0.0000°E)
Time: 08:58:45
(UTC+00:00)
Language:

GOSAT - Orbit

View from above orbital plane
View from above orbital plane
View from above satellite
View from above satellite

Ground track
Ground track

The orbit data is extracted from the following two-line orbital elements,

1 33492U 09002A   17057.84232426 -.00000149  00000-0 -17836-4 0  9998
2 33492  98.1110 170.4722 0001194  90.6932 269.4413 14.67524595433647
Epoch (UTC): 26 February 2017 20:12:56
Eccentricity: 0.0001194
inclination: 98.1110°
perigee height: 668 km
apogee height: 670 km
right ascension of ascending node: 170.4722°
argument of perigee: 90.6932°
revolutions per day: 14.67524595
mean anomaly at epoch: 269.4413°
orbit number at epoch: 43364

The dashed part of the orbit path shows where the satellite is in the earth's shadow,  

DLR